AAL714 KIND-KMEM

Flight info

Callsign AAL714
Flight time 1h 6m
Altitude 34000
Route OOM5 PXV BLUZZ5
Aircraft A321/M-SDE3FGHIRWY/LB1

Departure

Time 2026-05-06 00:03
Airport Indianapolis International Airport (KIND)

Arrival

Time 2026-05-06 01:10
Airport Memphis International Airport (KMEM)
Time Latitude Longitude Altitude Speed Heading
2026-05-05 23:43 39.71617 -86.29443 788 ft 0 kts 141°
2026-05-05 23:53 39.71633 -86.29460 816 ft 4 kts 135°
2026-05-05 23:54 39.71649 -86.29487 777 ft 4 kts 108°
2026-05-05 23:54 39.71649 -86.29513 780 ft 2 kts 46°
2026-05-05 23:54 39.71648 -86.29515 780 ft 0 kts 45°
2026-05-05 23:56 39.71661 -86.29498 788 ft 6 kts 45°
2026-05-05 23:57 39.71708 -86.29435 788 ft 12 kts 47°
2026-05-05 23:57 39.71757 -86.29347 788 ft 12 kts 72°
2026-05-05 23:57 39.71725 -86.29249 788 ft 13 kts 135°
2026-05-05 23:57 39.71658 -86.29173 788 ft 14 kts 140°
2026-05-05 23:58 39.71574 -86.29104 787 ft 15 kts 173°
2026-05-05 23:58 39.71488 -86.29182 787 ft 16 kts 230°
2026-05-05 23:58 39.71417 -86.29293 787 ft 16 kts 230°
2026-05-05 23:58 39.71334 -86.29396 785 ft 17 kts 196°
2026-05-05 23:59 39.71215 -86.29388 786 ft 17 kts 175°
2026-05-05 23:59 39.71098 -86.29406 787 ft 17 kts 200°
2026-05-05 23:59 39.70998 -86.29500 785 ft 19 kts 224°
2026-05-05 23:59 39.70908 -86.29614 788 ft 18 kts 224°
2026-05-06 00:00 39.70821 -86.29725 789 ft 18 kts 224°
2026-05-06 00:00 39.70735 -86.29835 792 ft 17 kts 224°
2026-05-06 00:00 39.70650 -86.29944 791 ft 18 kts 224°
2026-05-06 00:00 39.70549 -86.30074 790 ft 21 kts 224°
2026-05-06 00:01 39.70439 -86.30213 787 ft 23 kts 224°
2026-05-06 00:01 39.70324 -86.30359 788 ft 23 kts 225°
2026-05-06 00:01 39.70215 -86.30499 788 ft 16 kts 224°
2026-05-06 00:01 39.70125 -86.30545 791 ft 14 kts 157°
2026-05-06 00:02 39.70057 -86.30458 792 ft 13 kts 126°
2026-05-06 00:02 39.70082 -86.30370 790 ft 6 kts 42°
2026-05-06 00:02 39.70158 -86.30275 789 ft 43 kts 44°
2026-05-06 00:02 39.70533 -86.29797 792 ft 108 kts 44°
2026-05-06 00:03 39.71216 -86.28937 812 ft 158 kts 44°
2026-05-06 00:03 39.71990 -86.27966 1456 ft 154 kts 43°
2026-05-06 00:03 39.72735 -86.26988 2234 ft 150 kts 42°
2026-05-06 00:03 39.73473 -86.26014 2810 ft 156 kts 43°
2026-05-06 00:04 39.74209 -86.24871 3163 ft 172 kts 57°
2026-05-06 00:04 39.74533 -86.23309 3460 ft 193 kts 92°
2026-05-06 00:04 39.74118 -86.21563 3722 ft 213 kts 115°
2026-05-06 00:04 39.73462 -86.19764 3881 ft 237 kts 119°
2026-05-06 00:05 39.70773 -86.17144 4575 ft 257 kts 180°
2026-05-06 00:05 39.69077 -86.17636 5240 ft 251 kts 211°
2026-05-06 00:05 39.67600 -86.18882 5924 ft 254 kts 217°
2026-05-06 00:06 39.66184 -86.20257 6650 ft 255 kts 218°
2026-05-06 00:06 39.64751 -86.21627 7376 ft 256 kts 217°
2026-05-06 00:06 39.63284 -86.22953 8100 ft 257 kts 217°
2026-05-06 00:06 39.61792 -86.24235 8871 ft 257 kts 216°
2026-05-06 00:07 39.60285 -86.25479 9617 ft 259 kts 216°
2026-05-06 00:07 39.58749 -86.26713 10287 ft 262 kts 216°
2026-05-06 00:07 39.57133 -86.28001 10454 ft 284 kts 216°
2026-05-06 00:07 39.55381 -86.29390 10595 ft 305 kts 216°
2026-05-06 00:08 39.53541 -86.30838 11045 ft 313 kts 216°
2026-05-06 00:08 39.51668 -86.32299 11662 ft 315 kts 216°
2026-05-06 00:08 39.49779 -86.33771 12279 ft 319 kts 216°
2026-05-06 00:08 39.47867 -86.35261 12923 ft 322 kts 217°
2026-05-06 00:09 39.45944 -86.36759 13587 ft 324 kts 217°
2026-05-06 00:09 39.44008 -86.38268 14170 ft 327 kts 217°
2026-05-06 00:09 39.42051 -86.39796 14700 ft 330 kts 217°
2026-05-06 00:09 39.40076 -86.41338 15230 ft 333 kts 217°
2026-05-06 00:10 39.38082 -86.42895 15744 ft 337 kts 217°
2026-05-06 00:10 39.36061 -86.44472 16280 ft 341 kts 217°
2026-05-06 00:10 39.34023 -86.46062 16807 ft 344 kts 217°
2026-05-06 00:10 39.31963 -86.47671 17316 ft 348 kts 217°
2026-05-06 00:11 39.29880 -86.49293 17812 ft 351 kts 216°
2026-05-06 00:11 39.27773 -86.50927 18302 ft 355 kts 216°
2026-05-06 00:11 39.25646 -86.52573 18750 ft 358 kts 216°
2026-05-06 00:11 39.23503 -86.54234 19217 ft 360 kts 217°
2026-05-06 00:12 39.21350 -86.55909 19706 ft 362 kts 217°
2026-05-06 00:12 39.19185 -86.57592 20186 ft 365 kts 217°
2026-05-06 00:12 39.17006 -86.59282 20669 ft 367 kts 217°
2026-05-06 00:12 39.14808 -86.60977 21145 ft 370 kts 216°
2026-05-06 00:13 39.12475 -86.62459 21594 ft 376 kts 211°
2026-05-06 00:13 39.10128 -86.63858 22038 ft 378 kts 211°
2026-05-06 00:13 39.07735 -86.65285 22484 ft 380 kts 211°
2026-05-06 00:13 39.05332 -86.66721 22890 ft 382 kts 212°
2026-05-06 00:14 39.02911 -86.68171 23316 ft 384 kts 212°
2026-05-06 00:14 39.00482 -86.69628 23681 ft 387 kts 212°
2026-05-06 00:14 38.98037 -86.71094 24012 ft 389 kts 212°
2026-05-06 00:14 38.95573 -86.72565 24343 ft 392 kts 212°
2026-05-06 00:15 38.93095 -86.74044 24674 ft 394 kts 213°
2026-05-06 00:15 38.90607 -86.75524 24990 ft 396 kts 213°
2026-05-06 00:15 38.88093 -86.77017 25306 ft 398 kts 213°
2026-05-06 00:15 38.85574 -86.78512 25610 ft 401 kts 213°
2026-05-06 00:16 38.83037 -86.80020 25888 ft 403 kts 213°
2026-05-06 00:16 38.80489 -86.81534 26221 ft 404 kts 214°
2026-05-06 00:16 38.77929 -86.83061 26535 ft 407 kts 214°
2026-05-06 00:16 38.75361 -86.84591 26819 ft 409 kts 214°
2026-05-06 00:17 38.72768 -86.86129 27117 ft 411 kts 214°
2026-05-06 00:17 38.71047 -86.87147 27319 ft 413 kts 214°
2026-05-06 00:17 38.68433 -86.88693 27602 ft 415 kts 214°
2026-05-06 00:17 38.65805 -86.90246 27865 ft 417 kts 214°
2026-05-06 00:18 38.63162 -86.91809 28141 ft 419 kts 214°
2026-05-06 00:18 38.60509 -86.93377 28387 ft 422 kts 214°
2026-05-06 00:18 38.57834 -86.94951 28640 ft 424 kts 214°
2026-05-06 00:18 38.55144 -86.96529 28906 ft 426 kts 214°
2026-05-06 00:19 38.52517 -86.98236 29174 ft 419 kts 221°
2026-05-06 00:19 38.50202 -87.00411 29454 ft 409 kts 231°
2026-05-06 00:19 38.48211 -87.02966 29716 ft 405 kts 235°
2026-05-06 00:19 38.46268 -87.05587 29980 ft 407 kts 235°
2026-05-06 00:20 38.44323 -87.08204 30283 ft 407 kts 235°
2026-05-06 00:20 38.42372 -87.10810 30648 ft 405 kts 235°
2026-05-06 00:20 38.40455 -87.13360 31007 ft 403 kts 235°
2026-05-06 00:20 38.38517 -87.15932 31360 ft 401 kts 235°
2026-05-06 00:21 38.36589 -87.18487 31728 ft 399 kts 235°
2026-05-06 00:21 38.34670 -87.21035 32086 ft 397 kts 235°
2026-05-06 00:21 38.32765 -87.23569 32436 ft 395 kts 235°
2026-05-06 00:21 38.30865 -87.26097 32798 ft 393 kts 235°
2026-05-06 00:22 38.28979 -87.28606 33147 ft 392 kts 235°
2026-05-06 00:22 38.27099 -87.31104 33482 ft 390 kts 235°
2026-05-06 00:22 38.25222 -87.33590 33766 ft 390 kts 235°
2026-05-06 00:23 38.21496 -87.38517 33866 ft 383 kts 236°
2026-05-06 00:23 38.17820 -87.43384 33867 ft 381 kts 236°
2026-05-06 00:24 38.14145 -87.48246 33869 ft 382 kts 236°
2026-05-06 00:24 38.10452 -87.53114 33869 ft 383 kts 236°
2026-05-06 00:25 38.06759 -87.57976 33866 ft 383 kts 236°
2026-05-06 00:25 38.03059 -87.62836 33869 ft 383 kts 235°
2026-05-06 00:26 37.99355 -87.67694 33870 ft 383 kts 235°
2026-05-06 00:26 37.95651 -87.72550 33846 ft 383 kts 235°
2026-05-06 00:27 37.91588 -87.76961 33840 ft 401 kts 221°
2026-05-06 00:27 37.86505 -87.80143 33853 ft 408 kts 217°
2026-05-06 00:28 37.81377 -87.83254 33863 ft 409 kts 217°
2026-05-06 00:28 37.76262 -87.86379 33866 ft 408 kts 218°
2026-05-06 00:29 37.71151 -87.89516 33858 ft 408 kts 218°
2026-05-06 00:29 37.66037 -87.92641 33822 ft 409 kts 218°
2026-05-06 00:30 37.60908 -87.95767 33830 ft 409 kts 218°
2026-05-06 00:30 37.55772 -87.98892 33841 ft 410 kts 218°
2026-05-06 00:31 37.50628 -88.02013 33855 ft 411 kts 218°
2026-05-06 00:31 37.45479 -88.05143 33817 ft 411 kts 218°
2026-05-06 00:32 37.40327 -88.08266 33830 ft 411 kts 218°
2026-05-06 00:32 37.35166 -88.11384 33857 ft 411 kts 218°
2026-05-06 00:33 37.30010 -88.14480 33851 ft 410 kts 218°
2026-05-06 00:33 37.24904 -88.17545 33855 ft 409 kts 218°
2026-05-06 00:34 37.19775 -88.20643 33812 ft 408 kts 218°
2026-05-06 00:34 37.14656 -88.23725 33829 ft 408 kts 218°
2026-05-06 00:35 37.09533 -88.26795 33831 ft 408 kts 218°
2026-05-06 00:35 37.04410 -88.29858 33835 ft 408 kts 218°
2026-05-06 00:36 36.99296 -88.32916 33839 ft 407 kts 218°
2026-05-06 00:36 36.94195 -88.35972 33822 ft 407 kts 218°
2026-05-06 00:37 36.89081 -88.39024 33833 ft 407 kts 218°
2026-05-06 00:37 36.83974 -88.42061 33837 ft 407 kts 218°
2026-05-06 00:38 36.78863 -88.45095 33837 ft 407 kts 218°
2026-05-06 00:38 36.73755 -88.48132 33807 ft 406 kts 218°
2026-05-06 00:39 36.68655 -88.51161 33829 ft 406 kts 218°
2026-05-06 00:39 36.66104 -88.52671 33582 ft 407 kts 218°
2026-05-06 00:39 36.63541 -88.54191 32970 ft 406 kts 217°
2026-05-06 00:39 36.61037 -88.55666 32538 ft 402 kts 217°
2026-05-06 00:40 36.58519 -88.57142 32084 ft 398 kts 217°
2026-05-06 00:40 36.56030 -88.58604 31635 ft 394 kts 216°
2026-05-06 00:40 36.53566 -88.60055 31198 ft 390 kts 216°
2026-05-06 00:40 36.51129 -88.61498 30765 ft 386 kts 216°
2026-05-06 00:41 36.48713 -88.62927 30296 ft 383 kts 215°
2026-05-06 00:41 36.46317 -88.64344 29906 ft 380 kts 214°
2026-05-06 00:41 36.43939 -88.65750 29451 ft 377 kts 214°
2026-05-06 00:41 36.41583 -88.67136 29036 ft 373 kts 214°
2026-05-06 00:42 36.39247 -88.68502 28624 ft 370 kts 213°
2026-05-06 00:42 36.36930 -88.69855 28231 ft 366 kts 214°
2026-05-06 00:42 36.34634 -88.71200 27835 ft 364 kts 214°
2026-05-06 00:42 36.32357 -88.72536 27463 ft 361 kts 214°
2026-05-06 00:43 36.30099 -88.73859 27093 ft 357 kts 213°
2026-05-06 00:43 36.27861 -88.75170 26731 ft 354 kts 213°
2026-05-06 00:43 36.25641 -88.76467 26314 ft 353 kts 213°
2026-05-06 00:43 36.23425 -88.77765 25873 ft 351 kts 213°
2026-05-06 00:44 36.21224 -88.79056 25463 ft 349 kts 213°
2026-05-06 00:44 36.19030 -88.80339 25025 ft 348 kts 213°
2026-05-06 00:44 36.16838 -88.81620 24603 ft 348 kts 213°
2026-05-06 00:44 36.14657 -88.82898 24158 ft 348 kts 213°
2026-05-06 00:45 36.12469 -88.84177 23715 ft 348 kts 213°
2026-05-06 00:45 36.10280 -88.85454 23231 ft 348 kts 213°
2026-05-06 00:45 36.08086 -88.86731 22739 ft 347 kts 213°
2026-05-06 00:45 36.05907 -88.87995 22265 ft 345 kts 213°
2026-05-06 00:46 36.03738 -88.89253 21795 ft 344 kts 213°
2026-05-06 00:46 36.01576 -88.90507 21324 ft 343 kts 213°
2026-05-06 00:46 35.99422 -88.91758 20845 ft 341 kts 213°
2026-05-06 00:46 35.97277 -88.93006 20377 ft 340 kts 213°
2026-05-06 00:47 35.95137 -88.94250 19901 ft 340 kts 213°
2026-05-06 00:47 35.92999 -88.95487 19434 ft 339 kts 213°
2026-05-06 00:47 35.90865 -88.96730 18950 ft 339 kts 213°
2026-05-06 00:47 35.88739 -88.97969 18478 ft 339 kts 213°
2026-05-06 00:48 35.86621 -88.99196 18132 ft 334 kts 213°
2026-05-06 00:48 35.84546 -89.00395 17659 ft 332 kts 213°
2026-05-06 00:48 35.82430 -89.01615 17184 ft 330 kts 213°
2026-05-06 00:48 35.80358 -89.02811 16722 ft 328 kts 213°
2026-05-06 00:49 35.78300 -89.03995 16258 ft 325 kts 213°
2026-05-06 00:49 35.76283 -89.05151 15811 ft 323 kts 213°
2026-05-06 00:49 35.74262 -89.06339 15346 ft 318 kts 218°
2026-05-06 00:49 35.72482 -89.07849 14915 ft 306 kts 229°
2026-05-06 00:50 35.71002 -89.09669 14501 ft 299 kts 234°
2026-05-06 00:50 35.69580 -89.11522 14079 ft 297 kts 233°
2026-05-06 00:50 35.68161 -89.13350 13672 ft 295 kts 233°
2026-05-06 00:50 35.66746 -89.15172 13199 ft 293 kts 233°
2026-05-06 00:51 35.65346 -89.16981 12741 ft 291 kts 232°
2026-05-06 00:51 35.63956 -89.18779 12297 ft 290 kts 232°
2026-05-06 00:51 35.62577 -89.20566 11939 ft 285 kts 232°
2026-05-06 00:51 35.61227 -89.22309 11682 ft 278 kts 231°
2026-05-06 00:52 35.59913 -89.24022 11436 ft 273 kts 233°
2026-05-06 00:52 35.58682 -89.25777 11197 ft 270 kts 236°
2026-05-06 00:52 35.57498 -89.27569 10952 ft 270 kts 236°
2026-05-06 00:52 35.56325 -89.29363 10709 ft 270 kts 236°
2026-05-06 00:53 35.55157 -89.31143 10458 ft 266 kts 235°
2026-05-06 00:53 35.54019 -89.32882 10315 ft 256 kts 235°
2026-05-06 00:53 35.52918 -89.34542 10197 ft 246 kts 234°
2026-05-06 00:53 35.51851 -89.36126 10091 ft 237 kts 234°
2026-05-06 00:54 35.50799 -89.37674 9990 ft 236 kts 234°
2026-05-06 00:54 35.49750 -89.39211 9976 ft 236 kts 234°
2026-05-06 00:54 35.48693 -89.40746 9991 ft 235 kts 234°
2026-05-06 00:54 35.47634 -89.42278 9991 ft 235 kts 234°
2026-05-06 00:55 35.46574 -89.43805 9995 ft 235 kts 234°
2026-05-06 00:55 35.45515 -89.45334 9995 ft 238 kts 236°
2026-05-06 00:55 35.44746 -89.47177 9945 ft 247 kts 254°
2026-05-06 00:55 35.44315 -89.49208 9637 ft 245 kts 257°
2026-05-06 00:56 35.43942 -89.51245 9272 ft 244 kts 257°
2026-05-06 00:56 35.43582 -89.53280 8912 ft 243 kts 257°
2026-05-06 00:56 35.43231 -89.55304 8556 ft 242 kts 257°
2026-05-06 00:56 35.42884 -89.57322 8188 ft 242 kts 257°
2026-05-06 00:57 35.42547 -89.59336 7838 ft 241 kts 257°
2026-05-06 00:57 35.42219 -89.61328 7561 ft 236 kts 258°
2026-05-06 00:57 35.41898 -89.63295 7252 ft 234 kts 257°
2026-05-06 00:57 35.41588 -89.65206 7022 ft 224 kts 257°
2026-05-06 00:58 35.41291 -89.67051 6721 ft 217 kts 259°
2026-05-06 00:58 35.41009 -89.68829 6445 ft 210 kts 257°
2026-05-06 00:58 35.40747 -89.70586 6043 ft 210 kts 258°
2026-05-06 00:58 35.40493 -89.72335 5766 ft 204 kts 258°
2026-05-06 00:59 35.40256 -89.74009 5469 ft 197 kts 258°
2026-05-06 00:59 35.40013 -89.75657 5088 ft 195 kts 257°
2026-05-06 00:59 35.39791 -89.77266 4734 ft 193 kts 257°
2026-05-06 00:59 35.39580 -89.78894 4364 ft 193 kts 257°
2026-05-06 01:00 35.39373 -89.80523 4002 ft 194 kts 257°
2026-05-06 01:00 35.39185 -89.82176 3646 ft 193 kts 257°
2026-05-06 01:00 35.39023 -89.83784 3297 ft 193 kts 258°
2026-05-06 01:00 35.38870 -89.85410 3010 ft 191 kts 258°
2026-05-06 01:01 35.38728 -89.87036 2983 ft 193 kts 258°
2026-05-06 01:01 35.38589 -89.88675 2984 ft 195 kts 258°
2026-05-06 01:01 35.38448 -89.90329 2982 ft 195 kts 258°
2026-05-06 01:01 35.38284 -89.91978 2976 ft 193 kts 251°
2026-05-06 01:02 35.37599 -89.93314 2980 ft 187 kts 218°
2026-05-06 01:02 35.36475 -89.94108 3003 ft 187 kts 208°
2026-05-06 01:02 35.35299 -89.94799 2982 ft 188 kts 208°
2026-05-06 01:02 35.34119 -89.95494 2977 ft 188 kts 208°
2026-05-06 01:03 35.32939 -89.96184 2976 ft 188 kts 208°
2026-05-06 01:03 35.31757 -89.96854 2977 ft 187 kts 208°
2026-05-06 01:03 35.30574 -89.97524 2980 ft 188 kts 206°
2026-05-06 01:03 35.29274 -89.97813 2977 ft 192 kts 185°
2026-05-06 01:04 35.28009 -89.97780 2981 ft 174 kts 186°
2026-05-06 01:04 35.26825 -89.97754 2985 ft 166 kts 187°
2026-05-06 01:04 35.25677 -89.97731 2981 ft 164 kts 186°
2026-05-06 01:04 35.24533 -89.97708 2977 ft 164 kts 186°
2026-05-06 01:05 35.23405 -89.97685 2975 ft 162 kts 186°
2026-05-06 01:05 35.22283 -89.97661 2976 ft 161 kts 186°
2026-05-06 01:05 35.21171 -89.97638 2990 ft 160 kts 186°
2026-05-06 01:05 35.20060 -89.97615 2988 ft 160 kts 186°
2026-05-06 01:06 35.18948 -89.97591 2902 ft 160 kts 186°
2026-05-06 01:06 35.17854 -89.97568 2753 ft 158 kts 186°
2026-05-06 01:06 35.16757 -89.97545 2565 ft 157 kts 186°
2026-05-06 01:06 35.15666 -89.97522 2370 ft 157 kts 185°
2026-05-06 01:07 35.14577 -89.97499 2183 ft 156 kts 185°
2026-05-06 01:07 35.13493 -89.97476 1981 ft 154 kts 184°
2026-05-06 01:07 35.12466 -89.97453 1784 ft 143 kts 184°
2026-05-06 01:07 35.11470 -89.97409 1584 ft 143 kts 181°
2026-05-06 01:08 35.10799 -89.97379 1446 ft 143 kts 182°
2026-05-06 01:08 35.09812 -89.97359 1356 ft 142 kts 183°
2026-05-06 01:08 35.08806 -89.97350 1139 ft 148 kts 182°
2026-05-06 01:08 35.07789 -89.97339 924 ft 144 kts 180°
2026-05-06 01:09 35.06795 -89.97326 723 ft 140 kts 179°
2026-05-06 01:09 35.05816 -89.97304 528 ft 145 kts 182°
2026-05-06 01:09 35.04836 -89.97287 363 ft 141 kts 180°
2026-05-06 01:09 35.03943 -89.97274 311 ft 99 kts 179°
2026-05-06 01:10 35.03515 -89.97267 308 ft 43 kts 180°
2026-05-06 01:10 35.03279 -89.97305 305 ft 29 kts 207°
2026-05-06 01:10 35.03164 -89.97463 301 ft 24 kts 262°
2026-05-06 01:10 35.03162 -89.97666 298 ft 20 kts 270°
2026-05-06 01:11 35.03160 -89.97754 300 ft 0 kts 268°
2026-05-06 01:12 35.03160 -89.97758 300 ft 2 kts 268°
2026-05-06 01:12 35.03163 -89.97801 302 ft 8 kts 294°
2026-05-06 01:12 35.03221 -89.97821 301 ft 11 kts
2026-05-06 01:13 35.03326 -89.97823 302 ft 18 kts 357°
2026-05-06 01:13 35.03454 -89.97828 302 ft 18 kts 358°
2026-05-06 01:13 35.03581 -89.97831 303 ft 18 kts 359°
2026-05-06 01:13 35.03710 -89.97833 305 ft 18 kts 359°
2026-05-06 01:14 35.03888 -89.97894 312 ft 12 kts 278°
2026-05-06 01:14 35.03891 -89.98000 310 ft 13 kts 289°
2026-05-06 01:14 35.03963 -89.98031 310 ft 10 kts 12°
2026-05-06 01:15 35.04009 -89.98013 311 ft 6 kts 21°
2026-05-06 01:15 35.04031 -89.97993 312 ft 3 kts 42°
2026-05-06 01:15 35.04036 -89.97986 312 ft 0 kts 43°
2026-05-06 01:16 35.04039 -89.97984 312 ft 0 kts 30°
2026-05-06 01:18 35.04037 -89.97985 312 ft 0 kts 44°